DECAYED

STARLINK-1883, 46785 (Decayed)

Orbit data source: Space-Track

STARLINK-1883, 46785 was a payload satellite owned by SpaceX/Seattle (US) in LEO that was launched on Sat, 24 Oct 2020 UTC via an FALCON 9 launch vehicle from the Air Force Eastern Test Range (AFETR). Payload-class satellites include a variety of spacecraft equipped with specific instruments for various scientific and technological missions. These include communications satellites like Starlink; space stations such as the ISS; scientific satellites like the Hubble; Earth observation satellites from companies like Planet Labs, Umbra, and HawkEye 360; GPS; miniature CubeSats for education and research; and military/defense satellites.

Not visible in the next 10 days
Identifier
46785, 2020-074AY
Orbit
Decayed
Country
Flag of USUS
Related business
Manufacturer
SpaceX/Seattle
Mission
Decayed Commercial Communications
Bus & Motor
STARLINK, Unknown motor
Mass
260 kg wet, ~248 kg dry
Launch date (UTC)
2020-10-24 (6 years ago)
Launch vehicle
FALCON 9
Launch site
Air Force Eastern Test Range (AFETR)
Object type
Payload
Rocket body
Debris
Shape & HBR
Box + 1 Pan, 10.1 m
Radar Cross Section
13.562 m², Large (>1 m²)

Expand to show TLE details & history
Last TLE update: 2 years ago

TLE from 2 years ago
0 STARLINK-1883
1 46785U 20074AY  25052.83250321  .19651458  12681-4  42096-3 0  9996
2 46785  53.0295 178.4151 0009362 340.4592 156.6762 16.46053685239674
Epoch: 2025-02-21T19:58Z
TLE epoch observation values (Epoch: 2025-02-21T19:58:48.277Z)
Latitude
33.00293°
Longitude
-122.35725°
Altitude
157.554 km
Speed
7.813 km/s
True Right ascension
21h 57m 19s
True Declination
32° 49' 54"
Sunlit
Object was in daylight at epoch
Visualization orbit readout
Latitude
Unknown
Longitude
Unknown
Altitude
Unknown
Speed
Unknown
Apparent Right ascension
Unknown
Apparent Declination
Unknown
Sunlit
N/A
Visualization observer readout
Local Sidereal Time
04:19:00
Azimuth
Unknown
Elevation
Unknown
Doppler factor
Unknown
Orbital elements
Apogee altitude
156.151 km
Perigee altitude
143.928 km
Semi-major axis
6,528.176 km
Eccentricity
0.00094
Inclination
53.0295°
RAAN
178.4151°
Arg. of periapsis
340.4592°
True anomaly
156.71863°
Mean anomaly
156.6762°
Eccentric anomaly
156.69742°
Mean motion
4.11486 °/min
Orbital period
87.49 mins
BSTAR
0.00042096
Loading maneuver chart data...
Computing Atmospheric mass density...

Documentation

Showing up to 5 results
|